San Diego, CA

2:23 AM PST on December 09, 2016 (GMT -0800)
Miramar Marine Corps Air Station-Mitscher

Weather History for KNKX - May, 2013

Change the Weather History Date:

Friday, May 10, 2013

  Actual Average Record
Temperature  
Mean Temperature 64 °F -  
Max Temperature 72 °F 69 °F 75 °F (1997)
Min Temperature 57 °F 50 °F 43 °F (2003)
Degree Days  
Heating Degree Days 1    
Growing Degree Days 14 (Base 50)    
Moisture  
Dew Point 53 °F    
Average Humidity 68    
Maximum Humidity 87    
Minimum Humidity 53    
Precipitation  
Precipitation 0.00 in - - ()
Sea Level Pressure  
Sea Level Pressure 30.05 in    
Wind  
Wind Speed 4 mph (WNW)    
Max Wind Speed 10 mph    
Max Gust Speed -    
Visibility 10 miles    
Events      
Averages and records for this station are not official NWS values.
T = Trace of Precipitation, MM = Missing Value Source: NWS Daily Summary

Daily Weather History Graph

Daily Weather History Graph

Search for Another Location

Airport or City:

Trip Planner

Search our weather history database for the weather conditions in past years. The results will help you decide how hot, cold, wet, or windy it might be!

Date:

Astronomy

May. 10, 2013 Rise Set
Actual Time 5:52 AM PDT 7:37 PM PDT
Civil Twilight 5:26 AM PDT 8:04 PM PDT
Nautical Twilight 4:53 AM PDT 8:36 PM PDT
Astronomical Twilight 4:19 AM PDT 9:11 PM PDT
Moon 6:20 AM PDT (5/10) 8:29 PM PDT (5/10)
Length of Visible Light 14h 38m
Length of Day
13h 44m
New Moon, 1% of the Moon is Illuminated
May 10
New Moon
May 17
First Quarter
May 24
Full
May 31
Last Quarter
Jun 8
New

Hourly Weather History & Observations

Time (PDT) Temp. Dew Point Humidity Pressure Visibility Wind Dir Wind Speed Gust Speed Precip Events Conditions
12:55 AM 60.1 °F 52.0 °F 75% 30.08 in 10.0 mi Calm Calm - N/A   Mostly Cloudy
1:55 AM 59.0 °F 52.0 °F 78% 30.07 in 10.0 mi ENE 3.5 mph - N/A   Mostly Cloudy
2:55 AM 60.1 °F 52.0 °F 75% 30.06 in 10.0 mi Calm Calm - N/A   Overcast
3:55 AM 60.1 °F 52.0 °F 75% 30.06 in 10.0 mi Calm Calm - N/A   Mostly Cloudy
4:55 AM 59.0 °F 52.0 °F 78% 30.06 in 10.0 mi East 4.6 mph - N/A   Mostly Cloudy
5:55 AM 60.1 °F 52.0 °F 75% 30.06 in 10.0 mi Calm Calm - N/A   Overcast
6:55 AM 60.1 °F 52.0 °F 75% 30.06 in 10.0 mi ENE 3.5 mph - N/A   Mostly Cloudy
7:55 AM 63.0 °F 51.1 °F 65% 30.05 in 10.0 mi East 5.8 mph - N/A   Scattered Clouds
8:55 AM 64.9 °F 51.1 °F 61% 30.05 in 10.0 mi NW 4.6 mph - N/A   Partly Cloudy
9:55 AM 70.0 °F 52.0 °F 53% 30.06 in 10.0 mi NW 6.9 mph - N/A   Partly Cloudy
10:55 AM 69.1 °F 53.1 °F 57% 30.07 in 10.0 mi West 8.1 mph - N/A   Scattered Clouds
11:55 AM 70.0 °F 53.1 °F 55% 30.07 in 10.0 mi West 8.1 mph - N/A   Scattered Clouds
12:55 PM 70.0 °F 54.0 °F 57% 30.06 in 10.0 mi NW 9.2 mph - N/A   Scattered Clouds
1:55 PM 70.0 °F 54.0 °F 57% 30.05 in 10.0 mi West 10.4 mph - N/A   Scattered Clouds
2:55 PM 70.0 °F 55.0 °F 59% 30.03 in 10.0 mi Variable 6.9 mph - N/A   Scattered Clouds
3:55 PM 71.1 °F 54.0 °F 55% 30.02 in 10.0 mi WNW 8.1 mph - N/A   Scattered Clouds
4:55 PM 68.0 °F 54.0 °F 61% 30.02 in 10.0 mi NW 8.1 mph - N/A   Partly Cloudy
5:55 PM 66.9 °F 55.0 °F 66% 30.03 in 10.0 mi West 6.9 mph - N/A   Partly Cloudy
6:55 PM 66.0 °F 54.0 °F 65% 30.04 in 10.0 mi WNW 5.8 mph - N/A   Partly Cloudy
7:55 PM 63.0 °F 53.1 °F 70% 30.04 in 10.0 mi West 4.6 mph - N/A   Partly Cloudy
8:55 PM 61.0 °F 54.0 °F 78% 30.06 in 10.0 mi WSW 4.6 mph - N/A   Scattered Clouds
9:55 PM 60.1 °F 54.0 °F 80% 30.08 in 10.0 mi West 3.5 mph - N/A   Scattered Clouds
10:55 PM 57.9 °F 54.0 °F 87% 30.07 in 7.0 mi Calm Calm - N/A   Scattered Clouds
11:55 PM 57.9 °F 54.0 °F 87% 30.07 in 6.0 mi West 3.5 mph - N/A   Scattered Clouds